Other Surface Observations
Issued by NWS Tucson, AZ

Home | Current Version | Previous Version | Text Only | Print | Product List | Glossary On
Versions: 1 2 3 4 5 6 7 8 9 10 11 12 13 14 15 16 17 18 19 20 21 22 23 24 25 26 27 28 29 30 31 32 33 34 35 36 37 38 39 40 41 42 43 44 45 46 47 48 49 50
000
SXUS55 KTWC 272315
OSOTWC

WEATHER ROUNDUP FOR SOUTHEAST ARIZONA
NATIONAL WEATHER SERVICE TUCSON AZ
415 PM MST TUE SEP 27 2016

AZZ504>506-514-280015-
LOCATION       SKY/WX    TMP DP  RH WIND       PRES   REMARKS
TUCSON         PTSUNNY   81  53  37 SE15      29.98S
DAVIS-MONTHAN  PTSUNNY   80  54  39 NE9       29.97F
CHILDRENS PARK N/A      N/A N/A  37 SE11              PIMA CO DEQ
ALVERNON/22ND  N/A       85 N/A N/A E8                PIMA CO DEQ
CHERRY/GLENN   N/A       82 N/A N/A E10               PIMA CO DEQ
TANGERINE      N/A       82 N/A N/A S13               PIMA CO DEQ
CONTL RANCH    N/A       83  52  34 SE12              PIMA CO DEQ
GRANT/1ST      N/A       82  52  36 E10               PIMA CO DEQ
CRAYCROFT/22ND N/A       81  52  37 E8                PIMA CO DEQ
GOLFLINKS/KOLB N/A       80  53  39 NE4               PIMA CO DEQ
AJO/12TH       N/A       82  53  37 SE10              PIMA CO DEQ
FAIRGROUNDS    N/A       79 N/A N/A E16               PIMA CO DEQ
SAGUARO        N/A       84  54  36 E9G15             *SABINO CYN
SAN CARLOS     N/A       80  47  32 SE10G15           *SAN CARLOS
GREEN VALLEY   N/A       80  54  41 E9                PIMA CO DEQ
HORSE CAMP CYN N/A       72  50  46 E17G23            *ARAVAIPA CYN
RINCON MTNS    NOT AVBL
$$

AZZ509>511-280015-
LOCATION       SKY/WX    TMP DP  RH WIND       PRES   REMARKS
SAFFORD        MOSUNNY   79  48  33 SE10      30.04F
STRAY HORSE    N/A       61  47  61 SE4               *
TRAIL CABIN    N/A       68  50  52 E8G14             *N OF GRANVILLE
BLACK HILLS    NOT AVBL
DRY LAKE       N/A       66  49  55 SE6G15            *NATANES MTNS
NOON CREEK     N/A       71  47  42 S5G12             *PINALENO MTNS
COLUMBINE      N/A       53  47  80 SW5G12            *PINALENO MTNS
GUTHRIE        N/A       63  45  52 E7G17             *SW OF GUTHRIE
$$

AZZ502-503-513-280015-
LOCATION       SKY/WX    TMP DP  RH WIND       PRES   REMARKS
NOGALES        PTSUNNY   73  56  54 N6        30.02S
SELLS          N/A       84  52  33 NE5               *
SASABE         N/A       63  51  64 SE15G33           *ALTAR VLY
HOPKINS        N/A       61  50  67 E13G22            *SANTA RITA MTNS
CARR CYN       N/A       69  55  60 SE2               *W OF HEREFORD
$$

AZZ507-508-512-280015-
LOCATION       SKY/WX    TMP DP  RH WIND       PRES   REMARKS
SIERRA VISTA   PTSUNNY   74  55  49 VRB6      30.10F
DOUGLAS        PTSUNNY   77  52  41 E15G21    30.06F
EMPIRE MTNS    NOT AVBL
MULESHOE RANCH N/A       73  49  43 E10G18            *PRESERVE
HEADQUARTERS   NOT AVBL
$$

.............................NOTES.............................
THIS IS AN AUTOMATED COLLECTIVE WITH MINIMAL QUALITY CONTROL.
PIMA CO DEQ SITES HAVE NONSTANDARD WIND SENSOR HEIGHTS.
PIMA CO DEQ SITES DO NOT REPORT WIND GUSTS.
* INDICATES WIND SENSORS LOCATED AT 20 FEET INSTEAD OF 33 FEET.
..............................KEY..............................
SKY/WX - SKY CONDITION/WEATHER
TMP    - TEMPERATURE IN FAHRENHEIT
DP     - DEWPOINT IN FAHRENHEIT
RH     - RELATIVE HUMIDITY IN PERCENT
WIND   - DIRECTION AND SPEED IN MILES PER HOUR (MPH)
VRB    - VARIABLE WIND DIRECTION
PRES   - MEAN SEA LEVEL PRESSURE IN INCHES OF MERCURY
         F - FALLING PRESSURE   R - RISING PRESSURE
         S - STEADY PRESSURE
VSB    - VISIBILITY IN MILES
HX     - HEAT INDEX IN FAHRENHEIT
WCI    - WIND CHILL INDEX IN FAHRENHEIT
N/A    - NOT AVAILABLE
AFB    - AIR FORCE BASE
         DAVIS-MONTHAN IS DAVIS-MONTHAN AIR FORCE BASE
CYN    - CANYON
MTNS   - MOUNTAINS
NCA    - NATIONAL CONSERVATION AREA
NR     - NEAR
VLY    - VALLEY
CONTL  - CONTINENTAL
PIMA CO DEQ - PIMA COUNTY DEPT OF ENVIRONMENTAL QUALITY



USA.gov is the U.S. government's official web portal to all federal, state and local government web resources and services.